{"data":{"norad_id":58891,"epoch":"2026-09-20T21:43:15.809376Z","epoch_age_seconds":120733,"freshness":"FRESH","line1":"1 58891U 24020R   26263.90504409  .00000148  00000+0  15522-4 0  9990","line2":"2 58891  53.1593  90.1459 0001278  79.9183 280.1963 15.34388501149755","mean_motion":15.34388501,"eccentricity":0.0001278,"inclination_deg":53.1593,"raan_deg":90.1459,"arg_perigee_deg":79.9183,"mean_anomaly_deg":280.1963,"bstar":1.5522e-5,"rev_number":14975,"period_min":93.848461394328,"perigee_km":461.86315412125,"apogee_km":463.61168162246,"semimajor_km":6840.8744178719,"source":"CELESTRAK","updated_at":"2026-09-21T09:00:33.994763Z"}}